GW3577 Weather Reports


Display with metric or nautical units.
time (UTC)temp
F
wind
direction
speed
MPH
gust
MPH
rain 1hr
in
rain 24hr
in
rain mn
in
humidity
%
barometer
mb
20260905183306 85 212 3.0 6.0 0.00 0.00 0.00 68 1012.6
20260905182806 84 134 4.0 6.0 0.00 0.00 0.00 72 1012.6
20260905182300 83 94 4.0 6.0 0.00 0.00 0.00 72 1013.0
20260905181755 83 145 4.0 6.0 0.00 0.00 0.00 72 1013.3
20260905181254 83 144 3.0 4.0 0.00 0.00 0.00 72 1013.3
20260905180749 82 90 4.0 6.0 0.00 0.00 0.00 72 1013.3
20260905180244 82 97 6.0 8.0 0.00 0.00 0.00 72 1013.7
20260905175738 82 121 5.0 6.0 0.00 0.00 0.00 72 1013.3
20260905175233 82 135 4.0 6.0 0.00 0.00 0.00 72 1013.7
20260905174728 82 138 4.0 7.0 0.00 0.00 0.00 72 1013.7
20260905174224 82 125 0.0 2.0 0.00 0.00 0.00 72 1013.7
20260905173720 83 118 5.0 8.0 0.00 0.00 0.00 71 1013.7
20260905173216 83 115 6.0 8.0 0.00 0.00 0.00 71 1013.7
20260905172715 83 126 6.0 8.0 0.00 0.00 0.00 72 1013.3
20260905172209 83 122 6.0 8.0 0.00 0.00 0.00 71 1013.3
20260905171705 84 119 5.0 9.0 0.00 0.00 0.00 69 1013.3
20260905171201 85 147 5.0 10.0 0.00 0.00 0.00 67 1013.0
20260905170658 87 121 5.0 9.0 0.00 0.00 0.00 64 1012.6
20260905170157 86 144 1.0 3.0 0.00 0.00 0.00 64 1012.6
20260905165652 86 102 7.0 9.0 0.00 0.00 0.00 60 1012.6
20260905165147 86 119 4.0 6.0 0.00 0.00 0.00 58 1012.6
20260905164642 86 104 2.0 4.0 0.00 0.00 0.00 58 1013.0
20260905164141 86 104 1.0 2.0 0.00 0.00 0.00 58 1013.3
20260905163637 85 104 3.0 6.0 0.00 0.00 0.00 60 1013.0
20260905163134 84 43 1.0 4.0 0.00 0.00 0.00 62 1013.0
20260905162630 83 73 4.0 5.0 0.00 0.00 0.00 62 1013.3
20260905162129 84 74 4.0 6.0 0.00 0.00 0.00 61 1013.7
20260905161629 83 23 2.0 6.0 0.00 0.00 0.00 63 1014.0
20260905161126 82 151 3.0 5.0 0.00 0.00 0.00 65 1014.0
20260905160621 82 11 0.0 3.0 0.00 0.00 0.00 65 1013.7
20260905160120 82 87 3.0 5.0 0.00 0.00 0.00 66 1013.7
20260905155615 82 6 3.0 7.0 0.00 0.00 0.00 67 1013.7
20260905155114 82 63 4.0 7.0 0.00 0.00 0.00 67 1013.7
20260905154614 82 11 0.0 0.0 0.00 0.00 0.00 66 1014.3
20260905154109 82 12 5.0 7.0 0.00 0.00 0.00 65 1014.3
20260905153605 82 98 3.0 4.0 0.00 0.00 0.00 63 1014.3
20260905153101 83 55 2.0 4.0 0.00 0.00 0.00 62 1014.3
20260905152555 83 0 1.0 3.0 0.00 0.00 0.00 61 1014.7
20260905152050 82 358 4.0 6.0 0.00 0.00 0.00 62 1015.0
20260905151545 82 346 5.0 9.0 0.00 0.00 0.00 67 1015.0
20260905151041 82 83 0.0 3.0 0.00 0.00 0.00 68 1015.0
20260905150536 82 95 1.0 4.0 0.00 0.00 0.00 69 1015.0
20260905150034 82 298 0.0 0.0 0.00 0.00 0.00 66 1014.7
20260905145532 82 271 5.0 8.0 0.00 0.00 0.00 68 1014.7
20260905145026 81 133 1.0 2.0 0.00 0.00 0.00 76 1014.7
20260905144521 80 133 4.0 5.0 0.00 0.00 0.00 78 1014.7
20260905144020 81 325 0.0 0.0 0.00 0.00 0.00 78 1014.7
20260905143519 82 325 1.0 5.0 0.00 0.00 0.00 75 1014.3
20260905143015 82 106 0.0 2.0 0.00 0.00 0.00 73 1014.3
20260905142513 83 106 2.0 3.0 0.00 0.00 0.00 69 1014.3
20260905142010 84 106 0.0 0.0 0.00 0.00 0.00 68 1014.3
20260905141509 84 106 0.0 0.0 0.00 0.00 0.00 69 1014.3
20260905141006 84 106 1.0 2.0 0.00 0.00 0.00 68 1014.0
20260905140500 85 106 0.0 0.0 0.00 0.00 0.00 69 1013.7
20260905135959 83 106 0.0 0.0 0.00 0.00 0.00 70 1013.7
20260905135455 83 106 0.0 0.0 0.00 0.00 0.00 74 1013.7
20260905134950 82 106 0.0 0.0 0.00 0.00 0.00 74 1013.7
20260905134449 81 106 0.0 0.0 0.00 0.00 0.00 73 1013.7
20260905133948 81 106 0.0 0.0 0.00 0.00 0.00 73 1013.7
20260905133443 82 106 0.0 2.0 0.00 0.00 0.00 72 1013.7
20260905132937 82 106 0.0 0.0 0.00 0.00 0.00 72 1013.7
20260905132432 81 106 0.0 0.0 0.00 0.00 0.00 74 1013.3
20260905131927 80 106 0.0 0.0 0.00 0.00 0.00 77 1013.3
20260905131423 79 106 4.0 6.0 0.00 0.00 0.00 77 1013.3
20260905130918 79 106 0.0 0.0 0.00 0.00 0.00 79 1013.0
20260905130418 79 289 2.0 2.0 0.00 0.00 0.00 79 1013.0
20260905125917 78 289 0.0 0.0 0.00 0.00 0.00 82 1013.0
20260905125413 77 289 0.0 0.0 0.00 0.00 0.00 83 1013.0
20260905124908 77 289 0.0 0.0 0.00 0.00 0.00 84 1012.6
20260905124404 75 289 0.0 2.0 0.00 0.00 0.00 86 1013.0
20260905123904 75 289 0.0 0.0 0.00 0.00 0.00 89 1012.6
20260905123401 75 289 0.0 0.0 0.00 0.00 0.00 88 1013.0
20260905122856 74 289 0.0 0.0 0.00 0.00 0.00 88 1013.0
20260905122355 74 289 1.0 2.0 0.00 0.00 0.00 90 1013.3
20260905121850 73 289 0.0 0.0 0.00 0.00 0.00 92 1013.3
20260905121347 73 289 0.0 0.0 0.00 0.00 0.00 93 1013.3
20260905120845 72 289 0.0 0.0 0.00 0.00 0.00 93 1013.3
20260905120340 71 289 0.0 0.0 0.00 0.00 0.00 94 1013.3
20260905115836 71 289 0.0 0.0 0.00 0.00 0.00 94 1013.3
20260905115335 70 289 0.0 0.0 0.00 0.00 0.00 95 1013.7
20260905114835 70 289 0.0 0.0 0.00 0.00 0.00 96 1013.3
20260905114334 69 289 0.0 0.0 0.00 0.00 0.00 97 1013.0
20260905113833 69 289 0.0 0.0 0.00 0.00 0.00 97 1013.3
20260905113329 68 289 0.0 0.0 0.00 0.00 0.00 97 1013.3
20260905112825 68 289 0.0 0.0 0.00 0.00 0.00 97 1013.3
20260905112319 68 289 2.0 6.0 0.00 0.00 0.00 97 1013.3
20260905111815 68 289 0.0 0.0 0.00 0.00 0.00 97 1013.3
20260905111314 68 289 0.0 0.0 0.00 0.00 0.00 98 1013.3
20260905110814 68 289 0.0 0.0 0.00 0.00 0.00 97 1013.3
20260905110308 68 289 0.0 0.0 0.00 0.00 0.00 98 1013.3
20260905105804 67 289 0.0 0.0 0.00 0.00 0.00 98 1013.3
20260905105305 67 289 0.0 0.0 0.00 0.00 0.00 98 1013.3
20260905104757 67 289 0.0 0.0 0.00 0.00 0.00 98 1013.3
20260905104253 67 289 0.0 0.0 0.00 0.00 0.00 97 1013.3
20260905103753 67 289 0.0 0.0 0.00 0.00 0.00 97 1013.0
20260905103249 68 289 0.0 0.0 0.00 0.00 0.00 97 1013.3
20260905102744 68 289 0.0 0.0 0.00 0.00 0.00 97 1013.0
20260905102241 68 289 0.0 0.0 0.00 0.00 0.00 96 1013.0
20260905101740 68 289 0.0 0.0 0.00 0.00 0.00 96 1013.0
20260905101238 68 289 0.0 0.0 0.00 0.00 0.00 97 1013.0
20260905100734 68 289 0.0 0.0 0.00 0.00 0.00 96 1013.0
20260905100229 68 289 0.0 0.0 0.00 0.00 0.00 96 1013.0
20260905095723 68 289 0.0 0.0 0.00 0.00 0.00 97 1013.0
20260905095223 68 289 0.0 0.0 0.00 0.00 0.00 97 1013.0
20260905094718 68 289 0.0 0.0 0.00 0.00 0.00 97 1013.0
20260905094213 68 289 0.0 0.0 0.00 0.00 0.00 97 1013.0
20260905093712 68 289 0.0 0.0 0.00 0.00 0.00 98 1013.0
20260905093209 67 289 0.0 0.0 0.00 0.00 0.00 98 1013.0
20260905092704 67 289 0.0 0.0 0.00 0.00 0.00 98 1013.0
20260905092159 67 289 0.0 0.0 0.00 0.00 0.00 98 1013.0
20260905091654 67 289 0.0 0.0 0.00 0.00 0.00 98 1013.0
20260905091153 67 289 0.0 0.0 0.00 0.00 0.00 98 1013.0
20260905090648 67 289 0.0 0.0 0.00 0.00 0.00 98 1013.0
20260905090144 68 289 0.0 0.0 0.00 0.00 0.00 98 1012.6
20260905085642 68 289 0.0 0.0 0.00 0.00 0.00 98 1012.6
20260905085137 68 289 0.0 0.0 0.00 0.00 0.00 98 1013.0
20260905084637 68 289 0.0 0.0 0.00 0.00 0.00 98 1013.0
20260905084132 68 289 0.0 0.0 0.00 0.00 0.00 98 1013.0
20260905083632 68 289 0.0 0.0 0.00 0.00 0.00 98 1013.0
20260905083128 68 289 0.0 0.0 0.00 0.00 0.00 98 1013.0
20260905082624 68 289 0.0 0.0 0.00 0.00 0.00 98 1013.3
20260905082119 68 289 0.0 0.0 0.00 0.00 0.00 98 1013.0
20260905081614 68 289 0.0 0.0 0.00 0.00 0.00 97 1013.3
20260905081109 68 289 0.0 0.0 0.00 0.00 0.00 97 1013.3
20260905080608 68 289 0.0 0.0 0.00 0.00 0.00 97 1013.3
20260905075556 68 289 0.0 0.0 0.00 0.00 0.00 97 1013.3
20260905075056 69 289 0.0 0.0 0.00 0.00 0.00 97 1013.3
20260905074555 69 289 0.0 0.0 0.00 0.00 0.00 96 1013.3
20260905074046 69 289 0.0 0.0 0.00 0.00 0.00 96 1013.7
20260905073542 69 289 0.0 0.0 0.00 0.00 0.00 97 1013.7
20260905073037 69 289 0.0 0.0 0.00 0.00 0.00 97 1013.7
20260905072536 69 289 0.0 0.0 0.00 0.00 0.00 97 1013.7
20260905072032 69 289 0.0 0.0 0.00 0.00 0.00 97 1013.7
20260905071529 69 289 0.0 0.0 0.00 0.00 0.00 97 1014.0
20260905071028 69 289 0.0 0.0 0.00 0.00 0.00 98 1014.3
20260905070524 68 289 0.0 0.0 0.00 0.00 0.00 98 1014.3
20260905070020 68 289 0.0 0.0 0.00 0.00 0.00 98 1014.3
20260905065517 68 289 0.0 0.0 0.00 0.00 0.00 98 1014.3
20260905065013 68 289 0.0 0.0 0.00 0.00 0.00 98 1014.3
20260905064507 69 289 0.0 0.0 0.00 0.00 0.00 98 1014.3
20260905064002 69 289 0.0 0.0 0.00 0.00 0.00 98 1014.3
20260905063456 69 289 0.0 0.0 0.00 0.00 0.00 97 1014.3
20260905062953 69 289 0.0 0.0 0.00 0.00 0.00 97 1014.7
20260905062452 69 289 0.0 0.0 0.00 0.00 0.00 97 1014.7
20260905061947 69 289 0.0 0.0 0.00 0.00 0.00 96 1015.0
20260905061442 69 289 0.0 0.0 0.00 0.00 0.00 96 1015.0
20260905060936 70 289 0.0 0.0 0.00 0.00 0.00 95 1015.0
20260905060432 70 289 0.0 0.0 0.00 0.00 0.00 95 1015.0
20260905055931 70 289 0.0 0.0 0.00 0.00 0.00 96 1015.4
20260905055426 69 289 0.0 0.0 0.00 0.00 0.00 96 1015.4
20260905054925 69 289 0.0 0.0 0.00 0.00 0.00 97 1015.4
20260905054422 69 289 0.0 0.0 0.00 0.00 0.00 97 1015.4
20260905053921 69 289 0.0 0.0 0.00 0.00 0.00 97 1015.8
20260905053416 69 289 0.0 0.0 0.00 0.00 0.00 97 1015.8
20260905052912 69 289 0.0 0.0 0.00 0.00 0.00 96 1015.8
20260905052411 69 289 0.0 0.0 0.00 0.00 0.00 96 1016.1
20260905051910 69 289 0.0 0.0 0.00 0.00 0.00 96 1016.1
20260905051407 69 289 0.0 0.0 0.00 0.00 0.00 96 1016.1
20260905050904 69 289 0.0 0.0 0.00 0.00 0.00 96 1016.1
20260905050359 69 289 0.0 0.0 0.00 0.00 0.00 96 1016.5
20260905045855 70 289 0.0 0.0 0.00 0.00 0.00 95 1016.5
20260905045350 70 289 0.0 0.0 0.00 0.00 0.00 94 1016.5
20260905044845 70 289 0.0 0.0 0.00 0.00 0.00 94 1016.5
20260905044340 70 289 0.0 0.0 0.00 0.00 0.00 94 1016.5
20260905043839 71 289 0.0 0.0 0.00 0.00 0.00 94 1016.5
20260905043333 71 289 0.0 0.0 0.00 0.00 0.00 94 1016.5
20260905042828 71 289 0.0 0.0 0.00 0.00 0.00 94 1016.5
20260905042323 71 289 0.0 0.0 0.00 0.00 0.00 94 1016.5
20260905041818 71 289 0.0 0.0 0.00 0.00 0.00 94 1016.8
20260905041314 71 289 0.0 0.0 0.00 0.00 0.00 94 1016.5
20260905040809 71 289 0.0 0.0 0.00 0.00 0.00 93 1016.5
20260905040307 71 289 0.0 0.0 0.00 0.00 0.00 93 1016.8
20260905035802 71 289 0.0 0.0 0.00 0.00 0.00 93 1016.5
20260905035258 71 289 0.0 0.0 0.00 0.00 0.00 93 1016.8
20260905034755 71 289 0.0 0.0 0.00 0.00 0.00 93 1016.8
20260905034255 71 289 0.0 0.0 0.00 0.00 0.00 93 1016.8
20260905033753 71 289 0.0 0.0 0.00 0.00 0.00 93 1016.5
20260905033249 71 289 0.0 0.0 0.00 0.00 0.00 93 1016.5
20260905032748 71 289 0.0 0.0 0.00 0.00 0.00 93 1016.5
20260905032244 71 289 0.0 1.0 0.00 0.00 0.00 94 1016.5
20260905031738 71 113 0.0 0.0 0.00 0.00 0.00 94 1016.5
20260905031235 71 113 0.0 0.0 0.00 0.00 0.00 94 1016.5
20260905030734 71 113 0.0 0.0 0.00 0.00 0.00 94 1016.5
20260905030230 71 113 0.0 0.0 0.00 0.00 0.00 93 1016.8
20260905025724 71 327 0.0 0.0 0.00 0.00 0.00 93 1016.5
20260905025220 71 327 0.0 0.0 0.00 0.00 0.00 93 1016.5
20260905024715 71 327 0.0 0.0 0.00 0.00 0.00 92 1016.5
20260905024211 70 327 0.0 0.0 0.00 0.00 0.00 92 1016.5
20260905023707 71 327 0.0 0.0 0.00 0.00 0.00 92 1016.1
20260905023207 71 327 0.0 0.0 0.00 0.00 0.00 91 1016.1
20260905022705 71 327 0.0 0.0 0.00 0.00 0.00 90 1016.1
20260905022201 71 321 0.0 4.0 0.00 0.00 0.00 89 1016.1
20260905021655 71 198 0.0 0.0 0.00 0.00 0.00 89 1016.1
20260905021150 72 198 0.0 0.0 0.00 0.00 0.00 89 1015.8
20260905020645 72 198 0.0 0.0 0.00 0.00 0.00 88 1015.8
20260905020140 73 198 0.0 0.0 0.00 0.00 0.00 90 1015.4
20260905015639 73 198 0.0 0.0 0.00 0.00 0.00 90 1015.4
20260905015133 73 198 0.0 0.0 0.00 0.00 0.00 90 1015.4
20260905014627 73 198 0.0 0.0 0.00 0.00 0.00 91 1015.4
20260905014123 72 198 0.0 0.0 0.00 0.00 0.00 91 1015.0
20260905013620 72 198 0.0 0.0 0.00 0.00 0.00 91 1015.0
20260905013115 73 198 0.0 0.0 0.00 0.00 0.00 90 1015.0
20260905012614 73 198 0.0 0.0 0.00 0.00 0.00 90 1015.0
20260905012111 73 198 0.0 0.0 0.00 0.00 0.00 90 1014.7
20260905011607 73 198 0.0 0.0 0.00 0.00 0.00 89 1014.7
20260905011103 73 198 0.0 0.0 0.00 0.00 0.00 88 1014.7
20260905010601 73 198 0.0 0.0 0.00 0.00 0.00 87 1014.7
20260905010058 73 198 0.0 0.0 0.00 0.00 0.00 87 1014.7
20260905005553 73 198 0.0 0.0 0.00 0.00 0.00 88 1014.7
20260905005049 74 198 1.0 2.0 0.00 0.00 0.00 87 1014.7
20260905004543 74 198 1.0 2.0 0.00 0.00 0.00 86 1014.3
20260905004038 74 198 0.0 0.0 0.00 0.00 0.00 84 1014.3
20260905003535 74 198 0.0 0.0 0.00 0.00 0.00 84 1014.3
20260905003031 74 198 0.0 0.0 0.00 0.00 0.00 85 1014.3
20260905002526 75 198 0.0 0.0 0.00 0.00 0.00 83 1014.3
20260905002025 75 198 0.0 0.0 0.00 0.00 0.00 83 1014.7
20260905001520 76 198 0.0 0.0 0.00 0.00 0.00 83 1014.7
20260905001014 77 198 0.0 0.0 0.00 0.00 0.00 81 1014.7
20260905000510 77 198 0.0 0.0 0.00 0.00 0.00 80 1014.7
20260905000005 77 198 0.0 0.0 0.00 0.00 0.00 81 1014.7
20260904235500 77 198 0.0 0.0 0.00 0.00 0.00 81 1014.7
20260904234955 78 198 0.0 0.0 0.00 0.00 0.00 78 1015.0
20260904234454 77 198 0.0 0.0 0.00 0.00 0.00 78 1015.0
20260904233951 78 198 0.0 0.0 0.00 0.00 0.00 77 1015.4
20260904233446 78 198 1.0 2.0 0.00 0.00 0.00 77 1015.4
20260904232942 78 242 4.0 6.0 0.00 0.00 0.00 76 1016.1
20260904232438 79 141 0.0 0.0 0.00 0.00 0.00 77 1015.4
20260904231935 80 141 0.0 0.0 0.00 0.00 0.00 75 1015.4
20260904231429 80 141 0.0 0.0 0.00 0.00 0.00 70 1014.3
20260904230924 80 141 2.0 3.0 0.00 0.00 0.00 66 1014.3
20260904230423 81 294 0.0 0.0 0.00 0.00 0.00 64 1014.3
20260904225918 82 294 0.0 0.0 0.00 0.00 0.00 63 1014.7
20260904225417 83 122 0.0 0.0 0.00 0.00 0.00 56 1014.7
20260904224911 84 78 2.0 5.0 0.00 0.00 0.00 54 1015.0
20260904224407 84 69 0.0 2.0 0.00 0.00 0.00 54 1015.4
20260904223906 84 69 1.0 3.0 0.00 0.00 0.00 54 1015.4
20260904223406 84 49 3.0 8.0 0.00 0.00 0.00 54 1015.4
20260904222902 84 53 0.0 3.0 0.00 0.00 0.00 53 1015.0
20260904222402 86 82 6.0 10.0 0.00 0.00 0.00 48 1014.7
20260904221902 87 30 3.0 8.0 0.00 0.00 0.00 46 1015.0
20260904221357 89 18 6.0 11.0 0.00 0.00 0.00 46 1015.4
20260904220852 90 24 6.0 10.0 0.00 0.00 0.00 45 1015.0
20260904220351 91 9 9.0 13.0 0.00 0.00 0.00 46 1015.0
20260904215847 91 338 7.0 12.0 0.00 0.00 0.00 52 1014.7
20260904215342 91 158 1.0 2.0 0.00 0.00 0.00 51 1014.3
20260904214838 91 158 1.0 2.0 0.00 0.00 0.00 50 1014.3
20260904214333 91 158 1.0 2.0 0.00 0.00 0.00 51 1014.0
20260904213832 91 158 0.0 2.0 0.00 0.00 0.00 51 1014.0
20260904213327 91 158 4.0 4.0 0.00 0.00 0.00 51 1014.0
20260904212823 91 205 0.0 2.0 0.00 0.00 0.00 50 1013.7
20260904212323 91 135 3.0 4.0 0.00 0.00 0.00 50 1013.7
20260904211818 92 110 4.0 5.0 0.00 0.00 0.00 49 1013.7
20260904211313 94 107 5.0 7.0 0.00 0.00 0.00 48 1013.7
20260904210803 94 224 0.0 0.0 0.00 0.00 0.00 48 1013.7
20260904210302 95 224 2.0 4.0 0.00 0.00 0.00 48 1013.7
20260904205758 95 238 0.0 3.0 0.00 0.00 0.00 49 1013.7
20260904205254 96 243 2.0 6.0 0.00 0.00 0.00 49 1013.3
20260904204751 96 234 0.0 2.0 0.00 0.00 0.00 48 1013.3
20260904204247 96 280 3.0 4.0 0.00 0.00 0.00 48 1013.3
20260904203742 94 225 5.0 7.0 0.00 0.00 0.00 50 1013.0
20260904203238 93 249 7.0 9.0 0.00 0.00 0.00 50 1013.3
20260904202734 92 248 11.0 13.0 0.00 0.00 0.00 51 1013.3
20260904202230 91 243 10.0 13.0 0.00 0.00 0.00 53 1013.7
20260904201725 91 228 10.0 13.0 0.00 0.00 0.00 52 1013.7
20260904201225 91 227 9.0 14.0 0.00 0.00 0.00 52 1014.0
20260904200720 91 241 12.0 17.0 0.00 0.00 0.00 52 1014.0
20260904200209 93 248 9.0 12.0 0.00 0.00 0.00 50 1014.0
20260904195708 93 262 6.0 8.0 0.00 0.00 0.00 49 1014.0
20260904195207 93 278 5.0 7.0 0.00 0.00 0.00 48 1014.0
20260904194702 94 269 4.0 6.0 0.00 0.00 0.00 48 1013.7
20260904194201 94 247 6.0 8.0 0.00 0.00 0.00 48 1013.7
20260904193657 94 248 6.0 8.0 0.00 0.00 0.00 47 1013.7
20260904193153 95 252 7.0 8.0 0.00 0.00 0.00 45 1013.7
20260904192653 95 258 5.0 6.0 0.00 0.00 0.00 43 1013.3
20260904192143 97 294 3.0 6.0 0.00 0.00 0.00 43 1013.7
20260904191640 97 243 6.0 10.0 0.00 0.00 0.00 43 1013.7
20260904191135 99 254 4.0 9.0 0.00 0.00 0.00 41 1013.7
20260904190631 101 275 7.0 10.0 0.00 0.00 0.00 40 1013.0
20260904190127 99 252 8.0 11.0 0.00 0.00 0.00 41 1013.0
20260904185623 99 258 10.0 13.0 0.00 0.00 0.00 40 1013.0
20260904185118 99 213 8.0 11.0 0.00 0.00 0.00 40 1013.0
20260904184616 101 214 6.0 10.0 0.00 0.00 0.00 40 1013.0
20260904184112 101 352 1.0 4.0 0.00 0.00 0.00 39 1013.0
20260904183608 103 294 5.0 12.0 0.00 0.00 0.00 39 1013.3